Zurück zum Katalog

STARLINK-31296

AktivKommunikationVLEO
NORAD 58879·PAYLOAD·🇺🇸 United States

Gestartet Jan 29, 2024 von Vandenberg Space Force Base

Loading…

Nächste Überflüge (nächste 24 Stunden)

TLE

AktuellSource: CelesTrak SupGP

Epoche: Sep 14, 2026, 15:02 UTC

1 58879C 24020D   26257.62687500  .00040042  00000+0  11831-2 0  2573
2 58879  53.1574 137.0566 0001326  93.4682 107.1108 15.34369076    19

Verfolge STARLINK-31296 in Echtzeit mit AllMySat

Download on the App Store